Regional Weather Roundup
Issued by NWS

Home | Current Version | Previous Version | Graphics & Text | Print | Product List | Glossary On
Versions: 1 2 3 4 5 6 7 8 9 10 11 12 13 14 15 16 17 18 19 20 21 22 23 24 25 26 27 28
000
ASUS45 KBOI 272310
RWRID

IDAHO REGIONAL WEATHER ROUNDUP
NATIONAL WEATHER SERVICE BOISE ID
500 PM MDT SAT AUG 27 2016

NOTE: "FAIR" INDICATES FEW OR NO CLOUDS BELOW 12000 FEET
WITH NO SIGNIFICANT WEATHER AND/OR OBSTRUCTIONS TO VISIBILITY

IDZ012-014-280000-
SOUTHWEST IDAHO


CITY           SKY/WX    TMP DP  RH WIND       PRES   REMARKS
BOISE          SUNNY     90  31  12 VRB7      29.87F
CALDWELL       SUNNY     90  36  14 CALM      29.85F
MOUNTAIN HOME  SUNNY     92  31  11 W8        29.86F
$$

IDZ016-017-280000-
SOUTHCENTRAL IDAHO


CITY           SKY/WX    TMP DP  RH WIND       PRES   REMARKS
BURLEY         SUNNY     82  36  19 W8        29.96F
JEROME         PTSUNNY   83  38  20 W8        29.97F
TWIN FALLS     MOSUNNY   84  32  15 NW13      29.97F
$$

IDZ019>023-280000-
SOUTHEAST IDAHO


CITY           SKY/WX    TMP DP  RH WIND       PRES   REMARKS
IDAHO FALLS    SUNNY     82  30  15 SW14      29.99F
POCATELLO      SUNNY     85  28  12 W18       29.99F
REXBURG        SUNNY     82  27  13 SW18G25   29.98F
$$

IDZ006-010-011-018-031-032-280000-
CENTRAL IDAHO MOUNTAINS


CITY           SKY/WX    TMP DP  RH WIND       PRES   REMARKS
MCCALL         SUNNY     78  28  16 S7G18     30.00F
HAILEY         SUNNY     79  32  18 S9G16     30.02F
STANLEY          N/A     75  26  16 VRB7      30.08F
SALMON         CLOUDY    84  30  14 CALM      29.81F
CHALLIS        SUNNY     83  22  10 SW12G20   29.93S
$$

IDZ002-004-006-007-026-280000-
NORTHERN IDAHO


CITY           SKY/WX    TMP DP  RH WIND       PRES   REMARKS
LEWISTON       CLOUDY    90  41  18 NW16G26   29.71S
LOWELL           N/A     96  40  14 SE7       29.69F HX  92
COEUR D`ALENE  CLOUDY    84  43  23 S23G29    29.70S
MULLAN PASS    CLOUDY    67  36  31 VRB7G21   29.96R
$$




USA.gov is the U.S. government's official web portal to all federal, state and local government web resources and services.